QPF
0.04 0.05 0.05 0.05 0.05 0.05 0.04 0.04 0.03 0.03 0.02 0.02 0.02 0.02 0.02 0.02 0.03 0.02 0.01 0.01 0.01 0.02 0.03 0.04 0.04 0.03 0.03 0.03 0.02 0.02 0.01 0.01 0.01 0.01 0.01 0.01 0.01 0.01
0.04 0.04 0.05 0.05 0.05 0.05 0.05 0.04 0.04 0.03 0.03 0.02 0.01 0.02 0.02 0.02 0.02 0.01 0.01 0.01 0.01 0.01 0.02 0.03 0.03 0.03 0.03 0.03 0.03 0.02 0.01 0.01 0.01 0.01 0.01 0.01 0.01 0.01
0.04 0.04 0.04 0.04 0.04 0.05 0.05 0.04 0.04 0.04 0.04 0.03 0.02 0.01 0.01 0.02 0.02 0.02 0.01 0.01 0.01 0.01 0.02 0.03 0.04 0.04 0.04 0.04 0.03 0.02 0.02 0.01 0.01 0.01 0.01 0.01 0.01 0.01
0.04 0.03 0.03 0.04 0.05 0.05 0.05 0.05 0.04 0.04 0.05 0.04 0.03 0.03 0.02 0.02 0.01 0.02 0.02 0.01 0.01 0.01 0.02 0.02 0.03 0.04 0.04 0.05 0.03 0.03 0.02 0.01 0.01 0.01 0.01 0.01 0.01 0.01
0.04 0.03 0.03 0.03 0.04 0.05 0.05 0.05 0.05 0.04 0.04 0.04 0.04 0.03 0.04 0.03 0.02 0.02 0.02 0.02 0.01 0.01 0.01 0.01 0.02 0.03 0.04 0.05 0.04 0.03 0.02 0.02 0.02 0.01 0.01 0.01 0.01 0.01
0.06 0.04 0.03 0.03 0.03 0.04 0.04 0.04 0.04 0.04 0.05 0.05 0.05 0.04 0.04 0.04 0.03 0.03 0.02 0.03 0.02 0.01 0.01 0.01 0.01 0.02 0.03 0.03 0.04 0.04 0.03 0.03 0.03 0.03 0.02 0.01 0.01 0.01
0.05 0.05 0.04 0.03 0.03 0.03 0.04 0.04 0.04 0.04 0.04 0.04 0.04 0.04 0.04 0.04 0.05 0.05 0.04 0.04 0.03 0.02 0.02 0.01 0.01 0.01 0.02 0.03 0.03 0.03 0.03 0.03 0.03 0.03 0.03 0.03 0.02 0.02
0.04 0.04 0.04 0.04 0.03 0.03 0.03 0.04 0.04 0.05 0.04 0.03 0.03 0.03 0.03 0.03 0.04 0.05 0.05 0.05 0.05 0.03 0.02 0.02 0.01 0.01 0.01 0.01 0.02 0.03 0.03 0.03 0.03 0.03 0.03 0.03 0.02 0.02
0.04 0.04 0.04 0.04 0.04 0.04 0.03 0.04 0.04 0.04 0.03 0.03 0.02 0.02 0.02 0.02 0.04 0.05 0.05 0.05 0.05 0.04 0.04 0.03 0.02 0.02 0.01 0.02 0.02 0.02 0.03 0.03 0.03 0.03 0.03 0.03 0.03 0.02
0.03 0.03 0.04 0.04 0.04 0.04 0.05 0.04 0.04 0.03 0.03 0.03 0.02 0.01 0.01 0.02 0.03 0.04 0.05 0.05 0.04 0.03 0.03 0.03 0.02 0.01 0.01 0.01 0.02 0.03 0.03 0.03 0.03 0.04 0.04 0.03 0.03 0.03
0.02 0.02 0.03 0.03 0.03 0.04 0.04 0.04 0.03 0.03 0.03 0.03 0.03 0.02 0.02 0.02 0.03 0.04 0.05 0.04 0.03 0.02 0.02 0.02 0.01 0.01 0.01 0.01 0.01 0.02 0.03 0.03 0.03 0.03 0.04 0.04 0.03 0.02
0.02 0.02 0.02 0.02 0.03 0.04 0.03 0.03 0.03 0.03 0.03 0.02 0.02 0.02 0.02 0.02 0.02 0.03 0.04 0.04 0.04 0.03 0.02 0.02 0.01 0.01 0.01 0.02 0.02 0.02 0.02 0.03 0.03 0.03 0.03 0.03 0.03 0.02
0.02 0.02 0.02 0.02 0.03 0.03 0.04 0.03 0.04 0.04 0.03 0.03 0.03 0.03 0.02 0.02 0.03 0.03 0.03 0.03 0.03 0.03 0.02 0.02 0.02 0.01 0.02 0.02 0.02 0.02 0.03 0.03 0.03 0.03 0.03 0.03 0.03 0.02
0.03 0.02 0.02 0.03 0.03 0.03 0.03 0.04 0.04 0.04 0.03 0.03 0.03 0.03 0.03 0.03 0.02 0.02 0.02 0.02 0.02 0.03 0.03 0.03 0.03 0.02 0.02 0.02 0.02 0.03 0.03 0.03 0.03 0.02 0.02 0.03 0.02 0.02
0.02 0.02 0.02 0.02 0.02 0.03 0.03 0.03 0.03 0.03 0.03 0.02 0.02 0.02 0.02 0.02 0.02 0.03 0.03 0.03 0.03 0.03 0.03 0.04 0.03 0.03 0.03 0.03 0.02 0.03 0.03 0.03 0.03 0.02 0.02 0.02 0.02 0.01
0.01 0.01 0.02 0.02 0.01 0.02 0.02 0.02 0.02 0.03 0.03 0.02 0.02 0.02 0.02 0.02 0.02 0.03 0.03 0.03 0.03 0.03 0.03 0.03 0.03 0.03 0.04 0.03 0.03 0.03 0.03 0.03 0.03 0.02 0.02 0.02 0.02 0.01
0.01 0.01 0.01 0.01 0.01 0.01 0.01 0.01 0.02 0.02 0.02 0.02 0.02 0.02 0.02 0.02 0.02 0.02 0.03 0.03 0.04 0.03 0.03 0.03 0.04 0.04 0.04 0.04 0.05 0.04 0.03 0.03 0.03 0.03 0.03 0.02 0.02 0.02
0.02 0.02 0.01 0.01 0.01 0.01 0.01 0.01 0.02 0.02 0.02 0.02 0.02 0.02 0.02 0.02 0.02 0.02 0.03 0.03 0.04 0.04 0.03 0.03 0.04 0.06 0.06 0.06 0.06 0.04 0.04 0.04 0.03 0.03 0.03 0.03 0.03 0.02
0.02 0.02 0.01 0.01 0.01 0.02 0.02 0.01 0.01 0.02 0.02 0.02 0.02 0.02 0.02 0.02 0.02 0.02 0.02 0.03 0.03 0.03 0.03 0.03 0.04 0.05 0.06 0.05 0.05 0.04 0.04 0.04 0.04 0.04 0.03 0.03 0.02 0.02
0.02 0.01 0.01 0.01 0.01 0.01 0.01 0.02 0.01 0.02 0.02 0.02 0.02 0.02 0.02 0.02 0.03 0.02 0.02 0.03 0.03 0.03 0.04 0.03 0.03 0.04 0.04 0.04 0.03 0.03 0.03 0.03 0.03 0.03 0.03 0.02 0.02 0.02
0.01 0.01 0.01 0.02 0.02 0.01 0.01 0.01 0.01 0.01 0.01 0.02 0.02 0.02 0.02 0.03 0.03 0.02 0.02 0.03 0.03 0.03 0.03 0.03 0.03 0.03 0.03 0.04 0.03 0.02 0.02 0.03 0.03 0.03 0.02 0.02 0.02 0.02
0.01 0.01 0.01 0.02 0.02 0.02 0.02 0.01 0.01 0.01 0.01 0.01 0.02 0.02 0.02 0.03 0.03 0.03 0.03 0.03 0.03 0.03 0.02 0.02 0.02 0.03 0.04 0.05 0.04 0.03 0.03 0.03 0.04 0.04 0.04 0.03 0.03 0.02
0.02 0.02 0.02 0.02 0.02 0.02 0.02 0.02 0.01 0.01 0.01 0.01 0.02 0.02 0.02 0.03 0.03 0.03 0.03 0.03 0.03 0.03 0.02 0.02 0.03 0.03 0.04 0.04 0.04 0.03 0.03 0.03 0.03 0.04 0.04 0.03 0.02 0.02
MSLP
1020.98 1021.03 1021.11 1021.19 1021.28 1021.39 1021.53 1021.68 1021.83 1021.96 1022.06 1022.10 1022.08 1022.01 1021.91 1021.81 1021.74 1021.73 1021.79 1021.92 1022.12 1022.36 1022.60 1022.84 1023.04 1023.22 1023.37 1023.52 1023.69 1023.89 1024.13 1024.41 1024.71 1025.03 1025.32 1025.58 1025.79 1025.95
1020.86 1020.76 1020.68 1020.63 1020.62 1020.65 1020.75 1020.89 1021.07 1021.24 1021.40 1021.51 1021.57 1021.56 1021.51 1021.45 1021.41 1021.40 1021.45 1021.57 1021.73 1021.93 1022.12 1022.30 1022.45 1022.57 1022.68 1022.78 1022.91 1023.09 1023.31 1023.59 1023.91 1024.23 1024.55 1024.82 1025.04 1025.21
1020.82 1020.53 1020.27 1020.05 1019.90 1019.82 1019.85 1019.96 1020.14 1020.35 1020.57 1020.77 1020.91 1020.99 1021.02 1021.03 1021.04 1021.06 1021.13 1021.23 1021.36 1021.51 1021.65 1021.76 1021.83 1021.88 1021.91 1021.96 1022.04 1022.18 1022.38 1022.66 1022.98 1023.33 1023.66 1023.96 1024.21 1024.40
1020.88 1020.40 1019.95 1019.54 1019.22 1019.02 1018.94 1018.99 1019.15 1019.38 1019.64 1019.90 1020.12 1020.30 1020.42 1020.50 1020.57 1020.64 1020.72 1020.82 1020.93 1021.04 1021.12 1021.16 1021.16 1021.13 1021.09 1021.07 1021.10 1021.20 1021.38 1021.65 1021.98 1022.34 1022.70 1023.04 1023.31 1023.53
1021.09 1020.43 1019.79 1019.21 1018.72 1018.37 1018.17 1018.13 1018.24 1018.45 1018.72 1019.01 1019.28 1019.51 1019.69 1019.84 1019.96 1020.07 1020.18 1020.28 1020.38 1020.46 1020.49 1020.49 1020.43 1020.34 1020.24 1020.17 1020.15 1020.21 1020.37 1020.62 1020.95 1021.32 1021.70 1022.06 1022.37 1022.62
1021.48 1020.68 1019.88 1019.14 1018.49 1018.00 1017.68 1017.53 1017.55 1017.69 1017.92 1018.19 1018.46 1018.70 1018.90 1019.08 1019.22 1019.35 1019.48 1019.60 1019.70 1019.76 1019.78 1019.75 1019.67 1019.54 1019.41 1019.30 1019.25 1019.28 1019.41 1019.64 1019.95 1020.32 1020.71 1021.08 1021.41 1021.68
1022.04 1021.14 1020.24 1019.38 1018.62 1018.00 1017.56 1017.29 1017.20 1017.24 1017.37 1017.56 1017.76 1017.95 1018.12 1018.27 1018.41 1018.54 1018.66 1018.79 1018.89 1018.97 1019.00 1018.98 1018.90 1018.78 1018.64 1018.52 1018.45 1018.46 1018.56 1018.76 1019.04 1019.38 1019.75 1020.11 1020.43 1020.71
1022.72 1021.79 1020.84 1019.91 1019.07 1018.37 1017.82 1017.45 1017.22 1017.13 1017.13 1017.18 1017.26 1017.35 1017.43 1017.50 1017.58 1017.68 1017.79 1017.91 1018.03 1018.13 1018.20 1018.21 1018.17 1018.09 1017.98 1017.87 1017.80 1017.79 1017.86 1018.01 1018.25 1018.53 1018.85 1019.17 1019.47 1019.74
1023.44 1022.52 1021.57 1020.65 1019.79 1019.03 1018.42 1017.94 1017.60 1017.36 1017.20 1017.09 1017.01 1016.94 1016.88 1016.84 1016.83 1016.86 1016.94 1017.05 1017.18 1017.31 1017.42 1017.49 1017.51 1017.49 1017.42 1017.35 1017.29 1017.27 1017.31 1017.41 1017.58 1017.79 1018.04 1018.30 1018.55 1018.78
1024.08 1023.22 1022.33 1021.45 1020.61 1019.87 1019.22 1018.67 1018.22 1017.85 1017.54 1017.26 1016.99 1016.75 1016.54 1016.36 1016.23 1016.18 1016.19 1016.27 1016.40 1016.56 1016.72 1016.85 1016.93 1016.97 1016.97 1016.93 1016.90 1016.87 1016.88 1016.93 1017.03 1017.17 1017.34 1017.52 1017.71 1017.89
1024.55 1023.77 1022.97 1022.18 1021.41 1020.70 1020.06 1019.48 1018.96 1018.49 1018.04 1017.60 1017.18 1016.77 1016.40 1016.08 1015.83 1015.67 1015.62 1015.65 1015.76 1015.92 1016.11 1016.28 1016.42 1016.52 1016.57 1016.58 1016.57 1016.55 1016.54 1016.55 1016.59 1016.66 1016.75 1016.86 1016.99 1017.13
1024.81 1024.12 1023.43 1022.73 1022.06 1021.42 1020.81 1020.24 1019.69 1019.14 1018.60 1018.05 1017.50 1016.96 1016.45 1016.00 1015.64 1015.39 1015.25 1015.22 1015.29 1015.43 1015.61 1015.80 1015.97 1016.11 1016.20 1016.25 1016.26 1016.25 1016.24 1016.23 1016.23 1016.25 1016.29 1016.35 1016.43 1016.53
1024.85 1024.26 1023.66 1023.08 1022.50 1021.95 1021.40 1020.86 1020.31 1019.74 1019.15 1018.53 1017.90 1017.27 1016.67 1016.13 1015.68 1015.33 1015.10 1015.00 1015.00 1015.09 1015.23 1015.40 1015.56 1015.71 1015.83 1015.90 1015.94 1015.95 1015.95 1015.94 1015.94 1015.94 1015.96 1016.00 1016.06 1016.14
1024.75 1024.23 1023.73 1023.23 1022.75 1022.27 1021.80 1021.30 1020.79 1020.23 1019.64 1019.00 1018.34 1017.67 1017.03 1016.43 1015.91 1015.49 1015.18 1014.99 1014.90 1014.91 1014.98 1015.09 1015.22 1015.34 1015.45 1015.54 1015.60 1015.64 1015.67 1015.69 1015.71 1015.73 1015.76 1015.80 1015.86 1015.95
1024.58 1024.12 1023.68 1023.26 1022.86 1022.45 1022.03 1021.60 1021.12 1020.61 1020.05 1019.44 1018.79 1018.14 1017.49 1016.87 1016.31 1015.84 1015.46 1015.17 1014.99 1014.89 1014.86 1014.89 1014.95 1015.02 1015.11 1015.19 1015.27 1015.35 1015.42 1015.48 1015.54 1015.61 1015.67 1015.74 1015.82 1015.91
1024.44 1024.01 1023.62 1023.25 1022.89 1022.54 1022.17 1021.78 1021.36 1020.89 1020.38 1019.82 1019.23 1018.62 1018.00 1017.40 1016.84 1016.33 1015.89 1015.52 1015.24 1015.03 1014.89 1014.82 1014.79 1014.80 1014.84 1014.91 1015.00 1015.10 1015.21 1015.33 1015.44 1015.55 1015.66 1015.76 1015.86 1015.96
1024.36 1023.97 1023.60 1023.25 1022.92 1022.59 1022.25 1021.89 1021.51 1021.09 1020.63 1020.14 1019.62 1019.07 1018.51 1017.95 1017.40 1016.89 1016.41 1015.98 1015.62 1015.31 1015.07 1014.88 1014.76 1014.70 1014.70 1014.75 1014.83 1014.96 1015.10 1015.26 1015.41 1015.56 1015.70 1015.81 1015.91 1016.00
1024.37 1023.99 1023.63 1023.29 1022.96 1022.62 1022.29 1021.94 1021.58 1021.19 1020.78 1020.35 1019.90 1019.42 1018.93 1018.43 1017.93 1017.43 1016.94 1016.48 1016.06 1015.68 1015.36 1015.09 1014.90 1014.78 1014.73 1014.75 1014.83 1014.95 1015.11 1015.28 1015.45 1015.61 1015.74 1015.85 1015.92 1015.96
1024.41 1024.04 1023.68 1023.33 1022.98 1022.62 1022.26 1021.90 1021.53 1021.16 1020.78 1020.40 1020.01 1019.60 1019.19 1018.76 1018.31 1017.85 1017.39 1016.94 1016.50 1016.09 1015.72 1015.41 1015.17 1015.01 1014.93 1014.92 1014.99 1015.10 1015.25 1015.41 1015.56 1015.69 1015.79 1015.84 1015.84 1015.81
1024.43 1024.07 1023.70 1023.32 1022.93 1022.53 1022.13 1021.73 1021.33 1020.95 1020.58 1020.22 1019.88 1019.54 1019.19 1018.84 1018.47 1018.08 1017.68 1017.27 1016.86 1016.46 1016.10 1015.79 1015.55 1015.37 1015.28 1015.26 1015.30 1015.39 1015.51 1015.63 1015.73 1015.80 1015.82 1015.78 1015.69 1015.55
1024.36 1024.00 1023.61 1023.20 1022.76 1022.30 1021.83 1021.37 1020.92 1020.51 1020.13 1019.78 1019.47 1019.18 1018.91 1018.64 1018.36 1018.06 1017.75 1017.42 1017.08 1016.76 1016.45 1016.18 1015.97 1015.81 1015.73 1015.70 1015.73 1015.79 1015.86 1015.92 1015.95 1015.93 1015.85 1015.70 1015.49 1015.24
1024.18 1023.80 1023.38 1022.91 1022.41 1021.87 1021.33 1020.79 1020.28 1019.82 1019.41 1019.06 1018.77 1018.52 1018.32 1018.13 1017.95 1017.77 1017.57 1017.36 1017.14 1016.92 1016.71 1016.52 1016.37 1016.27 1016.21 1016.20 1016.21 1016.24 1016.26 1016.25 1016.19 1016.07 1015.88 1015.62 1015.30 1014.93
1023.87 1023.46 1022.99 1022.46 1021.88 1021.26 1020.63 1020.01 1019.43 1018.91 1018.46 1018.09 1017.81 1017.61 1017.47 1017.37 1017.30 1017.24 1017.18 1017.10 1017.02 1016.93 1016.85 1016.77 1016.71 1016.68 1016.66 1016.67 1016.68 1016.68 1016.65 1016.57 1016.43 1016.22 1015.93 1015.57 1015.15 1014.68
Thickness
5443 5444 5446 5449 5451 5454 5456 5458 5459 5460 5465 5470 5472 5475 5476 5477 5478 5479 5481 5483 5485 5487 5488 5489 5491 5492 5494 5496 5498 5500 5501 5503 5505 5506 5507 5508 5509 5510
5431 5433 5436 5438 5440 5442 5444 5447 5449 5449 5451 5457 5459 5461 5462 5463 5465 5466 5468 5470 5471 5473 5475 5476 5478 5480 5481 5483 5485 5487 5489 5490 5492 5493 5494 5495 5497 5498
5419 5422 5424 5426 5428 5430 5432 5435 5436 5437 5439 5443 5445 5447 5448 5449 5451 5453 5454 5457 5459 5460 5462 5464 5465 5467 5468 5471 5472 5474 5476 5477 5479 5480 5481 5483 5484 5486
5407 5410 5412 5414 5416 5418 5420 5422 5424 5426 5427 5429 5431 5433 5434 5436 5438 5440 5442 5444 5446 5448 5449 5451 5452 5454 5455 5458 5459 5461 5463 5465 5467 5468 5469 5471 5472 5472
5395 5397 5400 5401 5403 5405 5407 5409 5411 5413 5415 5416 5418 5420 5422 5423 5425 5427 5430 5432 5434 5435 5436 5438 5440 5441 5443 5444 5446 5448 5450 5453 5455 5455 5456 5457 5458 5459
5383 5385 5387 5389 5390 5392 5394 5396 5397 5398 5401 5403 5405 5407 5409 5411 5412 5414 5416 5419 5421 5423 5424 5425 5427 5428 5430 5432 5434 5435 5437 5439 5441 5442 5443 5444 5444 5445
5370 5372 5374 5376 5378 5379 5381 5383 5384 5385 5387 5390 5392 5394 5396 5397 5400 5402 5403 5406 5409 5412 5412 5413 5415 5416 5417 5419 5421 5423 5425 5426 5428 5429 5429 5430 5431 5431
5356 5359 5361 5363 5365 5367 5369 5370 5372 5373 5375 5377 5379 5382 5385 5386 5387 5389 5390 5391 5396 5400 5399 5402 5402 5404 5406 5407 5409 5410 5412 5413 5414 5415 5416 5417 5418 5418
5342 5344 5347 5349 5351 5352 5355 5357 5359 5361 5363 5365 5368 5371 5372 5374 5374 5376 5377 5379 5383 5385 5384 5389 5391 5393 5395 5395 5397 5398 5399 5400 5401 5402 5403 5403 5404 5405
5329 5330 5333 5335 5336 5338 5340 5342 5345 5347 5350 5352 5356 5359 5359 5360 5361 5362 5364 5365 5369 5371 5372 5374 5379 5380 5383 5384 5384 5386 5387 5387 5387 5388 5389 5390 5391 5392
5315 5317 5318 5321 5324 5326 5327 5329 5331 5333 5335 5337 5340 5343 5345 5347 5348 5348 5349 5350 5354 5358 5359 5360 5365 5366 5369 5371 5372 5372 5373 5374 5374 5375 5375 5376 5378 5378
5301 5303 5304 5307 5309 5311 5312 5314 5316 5319 5320 5323 5325 5329 5331 5332 5334 5335 5335 5336 5339 5343 5347 5346 5349 5348 5352 5358 5359 5359 5359 5359 5360 5361 5361 5362 5363 5363
5287 5289 5290 5292 5295 5297 5299 5300 5303 5305 5306 5307 5310 5313 5315 5317 5319 5321 5322 5323 5325 5329 5331 5330 5332 5333 5334 5340 5344 5344 5344 5345 5345 5345 5346 5347 5347 5348
5273 5275 5276 5278 5281 5283 5284 5287 5288 5290 5291 5292 5295 5298 5300 5302 5304 5306 5307 5309 5311 5314 5315 5314 5316 5317 5318 5321 5326 5329 5328 5328 5329 5329 5330 5330 5331 5332
5259 5262 5263 5265 5267 5268 5270 5272 5273 5274 5276 5278 5280 5282 5284 5286 5288 5290 5292 5294 5296 5298 5299 5300 5300 5302 5303 5305 5309 5311 5311 5312 5313 5313 5314 5314 5316 5317
5246 5248 5250 5252 5253 5254 5255 5256 5258 5259 5261 5263 5265 5266 5268 5270 5273 5275 5276 5278 5280 5283 5284 5285 5286 5287 5289 5291 5292 5294 5295 5296 5298 5298 5299 5300 5301 5302
5234 5234 5235 5236 5237 5238 5240 5241 5242 5244 5245 5247 5249 5251 5253 5255 5257 5258 5260 5262 5265 5268 5270 5271 5271 5272 5274 5276 5278 5280 5281 5282 5283 5283 5283 5285 5287 5288
5221 5221 5221 5222 5222 5223 5225 5226 5227 5228 5229 5231 5233 5235 5237 5239 5241 5242 5244 5246 5249 5253 5255 5256 5256 5257 5259 5263 5264 5266 5267 5268 5269 5269 5269 5271 5275 5275
5208 5208 5208 5208 5209 5209 5210 5211 5213 5213 5214 5216 5217 5219 5221 5223 5224 5226 5228 5230 5233 5237 5239 5240 5240 5241 5243 5249 5251 5251 5252 5254 5254 5255 5256 5257 5261 5264
5195 5195 5196 5196 5195 5196 5196 5197 5198 5199 5200 5201 5202 5203 5205 5207 5208 5210 5213 5215 5218 5221 5224 5225 5226 5227 5229 5233 5236 5238 5238 5239 5240 5241 5243 5244 5247 5250
5183 5183 5183 5183 5183 5183 5183 5184 5185 5185 5186 5187 5188 5189 5190 5192 5194 5196 5198 5201 5203 5206 5209 5213 5215 5215 5216 5217 5220 5225 5226 5227 5228 5229 5230 5231 5234 5236
5171 5171 5172 5172 5171 5171 5171 5171 5172 5173 5173 5174 5175 5176 5178 5179 5180 5182 5184 5187 5190 5193 5196 5200 5202 5202 5203 5205 5209 5212 5214 5216 5216 5217 5219 5221 5221 5225
5160 5160 5161 5161 5161 5161 5160 5160 5160 5161 5161 5162 5163 5164 5165 5167 5168 5170 5172 5174 5178 5181 5184 5187 5190 5191 5193 5195 5197 5200 5202 5204 5205 5207 5210 5211 5213 5216